Location: *
(46.0770°N, 1.6444°E)
Time: 08:12:29
(UTC+00:00)

Cosmos 1707 - Pass Details

Date: 16 September 2019
Orbit: 517 x 530 km, 82.5° (Epoch: 14 October)

Event Time Altitude Azimuth Distance (km) Brightness Sun altitude
Rises 18:51:36 0° 1° (N) 2,679 6.5 -9.0°
Reaches altitude 10° 18:54:00 10° 14° (NNE) 1,786 5.4 -9.5°
Maximum altitude 18:57:23 27° 73° (ENE) 1,041 3.8 -10.0°
Enters shadow 19:00:15 13° 128° (SE) 1,610 4.6 -10.5°
